Location: *
(2.5500°S, 65.9667°W)
Time: 19:02:43
(UTC+00:00)

deb Explorer IX - All Passes

Search period start: 19 April 2024 00:00
Search period end: 29 April 2024 00:00
Orbit: 513 x 903 km, 38.7° (Epoch: 17 April)

Date Brightness Start Highest point End Pass type
(mag) Time Alt. Az. Time Alt. Az. Time Alt. Az.
19 Apr - 00:26:46 10° NW 00:31:51 89° SW 00:36:20 10° SE visible
19 Apr - 11:03:29 10° SSW 11:07:47 35° SE 11:12:35 10° ENE daylight
19 Apr - 12:47:44 10° W 12:52:10 30° NW 12:57:01 10° NNE daylight
19 Apr - 23:28:16 10° NNW 23:33:22 46° NE 23:37:53 10° ESE visible
20 Apr - 01:13:58 10° W 01:17:33 20° SW 01:20:52 10° S visible
20 Apr - 10:06:15 10° S 10:09:21 18° SE 10:12:38 10° E daylight
20 Apr - 11:48:51 10° WSW 11:53:31 55° NW 11:58:48 10° NE daylight
20 Apr - 22:30:11 10° NNW 22:34:41 25° NE 22:38:50 10° E daylight
21 Apr - 00:14:12 10° WNW 00:19:04 41° SW 00:23:26 10° SSE visible
21 Apr - 10:50:24 10° SW 10:54:57 76° SE 11:00:05 10° NE daylight
21 Apr - 12:36:44 10° WNW 12:39:30 15° NW 12:42:26 10° N daylight
21 Apr - 21:32:45 10° N 21:35:50 15° NE 21:38:47 10° ENE daylight
21 Apr - 23:15:01 10° NW 23:20:29 83° SW 23:25:20 10° SE visible
22 Apr - 01:04:23 10° SW 01:04:43 10° SW 01:05:03 10° SW visible
22 Apr - 09:52:23 10° SSW 09:56:24 35° SE 10:00:49 10° ENE visible
22 Apr - 11:36:46 10° W 11:40:40 26° NW 11:44:57 10° NNE daylight
22 Apr - 22:16:12 10° NW 22:21:44 52° NE 22:26:42 10° ESE daylight
23 Apr - 00:02:05 10° W 00:06:00 21° SW 00:09:38 10° S visible
23 Apr - 08:54:59 10° S 08:57:47 17° SE 09:00:46 10° E visible
23 Apr - 10:37:37 10° WSW 10:41:53 48° NW 10:46:42 10° NE daylight
23 Apr - 21:17:49 10° NNW 21:22:49 29° NE 21:27:27 10° E daylight
23 Apr - 23:02:02 10° WNW 23:07:16 41° SW 23:11:58 10° SSE visible
24 Apr - 09:38:57 10° SW 09:43:11 80° SE 09:47:54 10° NE visible
24 Apr - 11:25:51 10° WNW 11:27:39 12° NW 11:29:31 10° NNW daylight
24 Apr - 20:19:58 10° N 20:23:45 17° NE 20:27:22 10° ENE daylight
24 Apr - 22:02:35 10° NW 22:08:24 79° SW 22:13:38 10° SE daylight
24 Apr - 23:51:20 10° SW 23:52:45 11° SW 23:54:07 10° SSW visible
25 Apr - 08:40:42 10° SSW 08:44:29 35° SE 08:48:34 10° ENE visible
25 Apr - 10:25:16 10° W 10:28:40 22° NW 10:32:21 10° NNE daylight
25 Apr - 21:03:32 10° NW 21:09:24 57° NE 21:14:47 10° ESE daylight
25 Apr - 22:49:29 10° W 22:53:46 22° SW 22:57:45 10° S visible
26 Apr - 07:43:04 10° S 07:45:42 17° SE 07:48:26 10° E visible
26 Apr - 09:25:49 10° WSW 09:29:46 42° NW 09:34:05 10° NNE visible
26 Apr - 20:04:53 10° NNW 20:10:15 32° NE 20:15:19 10° ESE daylight
26 Apr - 21:49:13 10° WNW 21:54:44 41° SW 21:59:48 10° SSE daylight
27 Apr - 08:26:53 10° SW 08:30:53 86° SE 08:35:14 10° NE visible
27 Apr - 19:06:48 10° N 19:10:58 19° NE 19:15:01 10° E daylight
27 Apr - 20:49:32 10° NW 20:55:37 76° SW 21:01:13 10° SE daylight
27 Apr - 22:38:01 10° WSW 22:40:05 12° SW 22:42:06 10° SSW visible
28 Apr - 07:28:22 10° SSW 07:32:01 36° SE 07:35:51 10° ENE visible
28 Apr - 09:13:12 10° W 09:16:08 19° NW 09:19:14 10° N visible
28 Apr - 18:10:49 10° NNE 18:11:33 10° NE 18:12:16 10° NE daylight
28 Apr - 19:50:18 10° NW 19:56:22 60° NE 20:02:06 10° ESE daylight
28 Apr - 21:36:14 10° W 21:40:49 23° SW 21:45:08 10° S daylight
